{"data":{"norad_id":53247,"intl_designator":"2022-086F","name":"STARLINK-4061","alt_names":[],"object_type":"PAYLOAD","status":"ACTIVE","operator":null,"country":"US","launch_date":"2022-07-24","launch_site_code":"AFETR","launch_vehicle":null,"mission":null,"orbit_class":"UNKNOWN","rcs_meters":null,"size_class":null,"mass_kg":null,"dimensions":null,"purposes":["comms"],"wikipedia_slug":null,"has_3d_model":false,"image_url":null,"decayed_at":null,"tle_current":{"epoch":"2026-05-25T05:24:58.021920Z","epoch_age_seconds":51547,"freshness":"FRESH","line1":"1 53247U 22086F   26145.22567155 -.00002888  00000+0 -16341-3 0  9995","line2":"2 53247  53.2138 215.7196 0001331  91.6819 268.4326 15.08849121212867","mean_motion":15.08849121,"eccentricity":0.0001331,"inclination_deg":53.2138,"raan_deg":215.7196,"arg_perigee_deg":91.6819,"mean_anomaly_deg":268.4326,"bstar":-0.00016341,"rev_number":21286,"period_min":95.436977757301,"perigee_km":538.7947436874,"apogee_km":540.63627602552,"semimajor_km":6917.8525098565,"source":"CELESTRAK","updated_at":"2026-05-25T13:38:17.360695Z"}}}